Location: Baix
(44.7118°N, 4.7648°E)
Time: 01:35:53
(UTC+00:00)

Vanguard 3 - Pass Details

Date: 04 December 2020
Orbit: 508 x 3262 km, 33.3° (Epoch: 19 January)

Event Time Altitude Azimuth Distance (km) Brightness Sun altitude
Rises 21:25:39 0° 248° (WSW) 2,626 - -55.9°
Reaches altitude 10° 21:28:36 10° 221° (SW) 1,716 - -56.4°
Maximum altitude 21:30:40 14° 186° (S) 1,505 - -56.7°
Drops below altitude 10° 21:32:54 10° 152° (SSE) 1,867 - -57.0°
Sets 21:36:23 0° 127° (SE) 3,039 - -57.5°
